Simultaneous Nadir Overpasses (SNOs) Predictions

Prediction of SNOs between AQUA and GOES-15 Satellite Orbit:

Table of predicted SNOs for the next 14.0 days since TLE Epoch: 4/19/2019
Index Date Time (AQUA) AQUA Lat,Lon GOES-15 Lat,Lon Distance(km) Time Diff (sec)
1 04/20/2019 21:52:18 0.70,-124.21 -0.06,-127.75 402.46 80
2 04/21/2019 10:13:33 0.43,-129.36 0.06,-127.77 181.74 80
3 04/23/2019 10:01:20 -0.21,-126.41 0.06,-127.85 163.10 80
4 04/23/2019 22:22:44 -0.85,-131.60 -0.06,-127.86 425.47 80
5 04/25/2019 22:10:31 -0.20,-128.64 -0.06,-127.93 81.07 80
6 04/27/2019 21:58:18 0.44,-125.69 -0.07,-128.00 263.09 80
7 04/28/2019 10:19:33 0.68,-130.84 0.06,-128.02 320.93 80
8 04/30/2019 10:07:20 0.03,-127.88 0.06,-128.08 22.88 80
9 05/02/2019 09:55:07 -0.62,-124.92 0.07,-128.14 366.28 80
10 05/02/2019 22:16:30 -0.51,-130.11 -0.06,-128.15 223.19 80




NCC Satellite Simultaneous Nadir Overpasses (SNOs) Prediction Service
